Darstellungsparameter: Aktuell verwendete Einstellungen:
Skalierung der Graphiken ... ?
xyx+y,   Skalierungsfaktor:      Skalierung: Modus: x, Faktor: 1
Darstellungszeitraum ... ?
Vom - - bis: - -   Zeitraum: 17.08.2020 - 16.11.2020
Min/Max/Avg-Anzeige ... ?
Zeige MMA aktuell
Zeige MMA Monat
Zeige MMA alles
Zeige --A aktuell
Zeige --A Monat
Zeige --A alles
Keine MMA-Anzeige
MMA:
Average (ber die Originaldaten)
MMA-Basis: 17.08.2020 - 16.11.2020
Quicknavigation für Darstellung... ?
Tage:      1T, 2T, 3T, 5T -1T -2T -3T -5T +1T +2T +3T +5T
Wochen: 1W, 2W, 3W -1W -2W -3W +1W +2W +3W
Monate: 1M, 3M, 6M -1M -3M -6M +1M +3M +6M
Jahre:    1J, 3J, 5J, 10J -1J -3J -5J -10J +1J +3J +5J +10J
Nutze für die Darstellung ... ?
Originaldaten oder ...
Mittelwerte Minima Maxima auf...
Stundenbasis Tagesbasis Wochenbasis
Monatsbasis Jahresbasis      Datenbasis: Mittelwerte auf Tagesbasis
Darstellen als:
Statistik (Auto) Statistik J:M      Darstellung:
Zur Graphik,    zurück zur Übersicht aller Sensoren.
 
Tabellarische Datenbersicht: ?
 
Sensor: Nr:Datum:Temp:Abs-Feuchte:Windchill:Wind:
Aussen-T/F 1 17-08-2020 00:00:00 21.08056 C 15.08 g/m*3 21.08 C 5.46771 km/h
2 18-08-2020 00:00:00 19.08924 C 13.44 g/m*3 19.09 C 5.45035 km/h
3 19-08-2020 00:00:00 19.13125 C 13.6 g/m*3 19.13 C 2.6 km/h
4 20-08-2020 00:00:00 23.86042 C 16.77 g/m*3 23.86 C 3.63333 km/h
5 21-08-2020 00:00:00 25.27743 C 16.68 g/m*3 25.28 C 3.1684 km/h
6 22-08-2020 00:00:00 22.45625 C 13.37 g/m*3 22.46 C 8.48924 km/h
7 23-08-2020 00:00:00 19.15764 C 11.48 g/m*3 19.16 C 8.00417 km/h
8 24-08-2020 00:00:00 18.23437 C 11.11 g/m*3 18.23 C 7.39236 km/h
9 25-08-2020 00:00:00 19.07917 C 11.78 g/m*3 19.08 C 2.38854 km/h
10 26-08-2020 00:00:00 20.74132 C 10.59 g/m*3 20.74 C 17.51354 km/h
11 27-08-2020 00:00:00 18.39271 C 10.85 g/m*3 18.39 C 4.98194 km/h
12 28-08-2020 00:00:00 17.86667 C 11.89 g/m*3 17.87 C 5.87326 km/h
13 29-08-2020 00:00:00 16.24479 C 10.69 g/m*3 16.24 C 6.83125 km/h
14 30-08-2020 00:00:00 15.77153 C 10.79 g/m*3 15.77 C 3.10139 km/h
15 31-08-2020 00:00:00 15.63437 C 11.83 g/m*3 15.63 C 1.73993 km/h
16 01-09-2020 00:00:00 15.08889 C 11.37 g/m*3 15.09 C 2.16007 km/h
17 02-09-2020 00:00:00 15.65833 C 10.57 g/m*3 15.66 C 1.79826 km/h
18 03-09-2020 00:00:00 14.23542 C 10.76 g/m*3 14.24 C 2.02188 km/h
19 04-09-2020 00:00:00 20.30278 C 14.14 g/m*3 20.3 C 2.91528 km/h
20 05-09-2020 00:00:00 16.89688 C 11.32 g/m*3 16.9 C 5.12153 km/h
21 06-09-2020 00:00:00 13.28021 C 8.89 g/m*3 13.28 C 1.89306 km/h
22 07-09-2020 00:00:00 14.01493 C 9.14 g/m*3 14.01 C 1.69861 km/h
23 08-09-2020 00:00:00 16.29826 C 10.22 g/m*3 16.3 C 3.6691 km/h
24 09-09-2020 00:00:00 18.26667 C 12.68 g/m*3 18.27 C 2.00243 km/h
25 10-09-2020 00:00:00 17.81319 C 11.11 g/m*3 17.81 C 4.58264 km/h
Sensor: Nr:Datum:Temp:Abs-Feuchte:Windchill:Wind:
Aussen-T/F 26 11-09-2020 00:00:00 15.1066 C 9.78 g/m*3 15.11 C 1.90382 km/h
27 12-09-2020 00:00:00 17.20625 C 11.1 g/m*3 17.21 C 2.67917 km/h
28 13-09-2020 00:00:00 17.20486 C 10.98 g/m*3 17.2 C 1.15799 km/h
29 14-09-2020 00:00:00 18.81806 C 11.85 g/m*3 18.82 C 1.44514 km/h
30 15-09-2020 00:00:00 20.38194 C 12.5 g/m*3 20.38 C 1.33438 km/h
31 16-09-2020 00:00:00 20.67049 C 13.3 g/m*3 20.67 C 2.85139 km/h
32 17-09-2020 00:00:00 17.93958 C 9.81 g/m*3 17.94 C 7.81493 km/h
33 18-09-2020 00:00:00 15.74687 C 8.85 g/m*3 15.75 C 5.23993 km/h
34 19-09-2020 00:00:00 15.73333 C 8.37 g/m*3 15.73 C 3.23229 km/h
35 20-09-2020 00:00:00 14.83056 C 8.79 g/m*3 14.83 C 0.98333 km/h
36 21-09-2020 00:00:00 14.75174 C 8.82 g/m*3 14.75 C 1.3875 km/h
37 22-09-2020 00:00:00 16.10521 C 9.55 g/m*3 16.11 C 2.65486 km/h
38 23-09-2020 00:00:00 17.57639 C 10.33 g/m*3 17.58 C 4.72743 km/h
39 24-09-2020 00:00:00 16.23021 C 10.63 g/m*3 16.23 C 6.51458 km/h
40 25-09-2020 00:00:00 12.16979 C 8.92 g/m*3 12.17 C 6.2375 km/h
41 26-09-2020 00:00:00 10.52674 C 8.57 g/m*3 9.23 C 10.16528 km/h
42 27-09-2020 00:00:00 11.00694 C 9.2 g/m*3 11.01 C 3.05417 km/h
43 28-09-2020 00:00:00 11.72882 C 9.12 g/m*3 11.73 C 2.08542 km/h
44 29-09-2020 00:00:00 12.13333 C 10.11 g/m*3 12.13 C 2.01181 km/h
45 30-09-2020 00:00:00 14.10799 C 11.27 g/m*3 14.11 C 1.49028 km/h
46 01-10-2020 00:00:00 12.57465 C 10.28 g/m*3 12.57 C 1.79167 km/h
47 02-10-2020 00:00:00 13.41493 C 10.32 g/m*3 13.41 C 3.99028 km/h
48 03-10-2020 00:00:00 13.37049 C 10.26 g/m*3 13.37 C 4.70139 km/h
49 04-10-2020 00:00:00 11.79861 C 9.09 g/m*3 11.8 C 5.03785 km/h
50 05-10-2020 00:00:00 11.07257 C 9.18 g/m*3 11.07 C 4.18125 km/h
Sensor: Nr:Datum:Temp:Abs-Feuchte:Windchill:Wind:
Aussen-T/F 51 06-10-2020 00:00:00 13.11389 C 10.11 g/m*3 13.11 C 9.72361 km/h
52 07-10-2020 00:00:00 13.19444 C 9.43 g/m*3 13.19 C 10.52674 km/h
53 08-10-2020 00:00:00 13.25243 C 10.22 g/m*3 13.25 C 9.92882 km/h
54 09-10-2020 00:00:00 12.99063 C 10.74 g/m*3 12.99 C 3.04167 km/h
55 10-10-2020 00:00:00 9.91979 C 8.09 g/m*3 9.53 C 5.46806 km/h
56 11-10-2020 00:00:00 10.06944 C 7.91 g/m*3 10.07 C 3.7941 km/h
57 12-10-2020 00:00:00 9.40799 C 8.28 g/m*3 9.41 C 2.21146 km/h
58 13-10-2020 00:00:00 7.37361 C 7.35 g/m*3 7.37 C 1.675 km/h
59 14-10-2020 00:00:00 7.7559 C 7.3 g/m*3 7.76 C 3.28819 km/h
60 15-10-2020 00:00:00 9.09444 C 8.18 g/m*3 9.09 C 2.88958 km/h
61 16-10-2020 00:00:00 9.26007 C 8.27 g/m*3 9.26 C 1.825 km/h
62 17-10-2020 00:00:00 6.19618 C 6.87 g/m*3 6.2 C 0.83403 km/h
63 18-10-2020 00:00:00 8.18958 C 7.58 g/m*3 8.19 C 3.07847 km/h
64 19-10-2020 00:00:00 8.62604 C 7.89 g/m*3 8.63 C 1.77847 km/h
65 20-10-2020 00:00:00 8.95714 C 8.23 g/m*3 8.96 C 1.27108 km/h
66 21-10-2020 00:00:00 15.08611 C 10.6 g/m*3 15.09 C 3.43924 km/h
67 22-10-2020 00:00:00 16.18681 C 11.86 g/m*3 16.19 C 3.23125 km/h
68 23-10-2020 00:00:00 15.0691 C 11.94 g/m*3 15.07 C 1.57049 km/h
69 24-10-2020 00:00:00 13.40799 C 10.12 g/m*3 13.41 C 5.98194 km/h
70 25-10-2020 00:00:00 13.16458 C 9.89 g/m*3 13.16 C 2.75104 km/h
71 26-10-2020 00:00:00 10.20313 C 8.43 g/m*3 10.2 C 3.64583 km/h
72 27-10-2020 00:00:00 10.44514 C 8.03 g/m*3 10.45 C 4.82604 km/h
73 28-10-2020 00:00:00 12.59861 C 9.23 g/m*3 12.6 C 6.52049 km/h
74 29-10-2020 00:00:00 10.65347 C 9 g/m*3 10.04 C 6.76285 km/h
75 30-10-2020 00:00:00 13.81667 C 10.81 g/m*3 13.82 C 7.83611 km/h
Sensor: Nr:Datum:Temp:Abs-Feuchte:Windchill:Wind:
Aussen-T/F 76 31-10-2020 00:00:00 13.1434 C 9.98 g/m*3 13.14 C 3.45035 km/h
77 01-11-2020 00:00:00 15.18715 C 11.89 g/m*3 15.19 C 6.08715 km/h
78 02-11-2020 00:00:00 18.53125 C 12.8 g/m*3 18.53 C 13.2875 km/h
79 03-11-2020 00:00:00 10.3559 C 8.24 g/m*3 10.11 C 5.15382 km/h
80 04-11-2020 00:00:00 4.54444 C 6.28 g/m*3 4.54 C 0.86667 km/h
81 05-11-2020 00:00:00 3.1178 C 5.8 g/m*3 3.12 C 0.73898 km/h
82 06-11-2020 00:00:00 3.23681 C 5.88 g/m*3 3.24 C 1.18333 km/h
83 07-11-2020 00:00:00 4.20285 C 6.18 g/m*3 4.2 C 1.19573 km/h
84 08-11-2020 00:00:00 7.08472 C 7.39 g/m*3 7.08 C 0 km/h
85 09-11-2020 00:00:00 9.85972 C 8.93 g/m*3 9.86 C 0.26701 km/h
86 10-11-2020 00:00:00 7.08333 C 7.56 g/m*3 7.08 C 0.01667 km/h
87 11-11-2020 00:00:00 9.01875 C 8.34 g/m*3 9.02 C 2.23264 km/h
88 12-11-2020 00:00:00 9.26458 C 8.1 g/m*3 9.26 C 3.0566 km/h
89 13-11-2020 00:00:00 6.6191 C 7.24 g/m*3 6.62 C 0.48889 km/h
90 14-11-2020 00:00:00 10.4625 C 9 g/m*3 10.46 C 1.51354 km/h
91 15-11-2020 00:00:00 13.18819 C 9.92 g/m*3 13.19 C 4.00243 km/h
92 16-11-2020 00:00:00 10.81736 C 8.52 g/m*3 9.48 C 10.79271 km/h

Maximal/Minimal-Werte vom 17.08.2020 - 16.11.2020

Sensor Min Max Avg
Temp
(Aussen-T/F)
0.3 °C
07-11-2020  03:25:00
33.7 °C
20-08-2020  18:50:00
13.72 °C
Abs-Feuchte
(Aussen-T/F)
5.8 g/m*3
05-11-2020  00:00:00
16.77 g/m*3
20-08-2020  00:00:00
9.89 g/m*3
Windchill
(Aussen-T/F)
3.12 C
05-11-2020  00:00:00
25.28 C
21-08-2020  00:00:00
13.5 C

Die Daten stammen von einer Davis Vantage Pro 2 Wetter-Station und werden unter Linux mit der Software wview2wettercgi und aufbereitet. Alle Angaben erfolgen ohne Gewähr für ihre Vollständigkeit oder Richtigkeit.
Kontakt: Rainer Krienke krienke@uni-koblenz.de . Meine Webseiten an der Uni Koblenz oder privat.
Version: $Revision: 0.78 $